Regional Weather Roundup
Issued by NWS

Home | Current Version | Previous Version | Text Only | Print | Product List | Glossary Off
Versions: 1 2 3 4 5 6 7 8 9 10 11 12 13 14 15 16 17 18 19 20 21 22 23 24 25 26 27 28 29 30 31 32 33 34 35 36 37 38 39 40 41 42 43 44 45 46 47 48 49 50

000
ASUS44 KMEG 221310
RWRTN
TENNESSEE HOURLY STATE WEATHER ROUNDUP
NATIONAL WEATHER SERVICE MEMPHIS TN
800 AM CDT TUE APR 22 2014

TNZ002-004-019-021-049-052-054-088>092-221400-
WEST TENNESSEE

CITY           SKY/WX    TMP DP  RH WIND       PRES   REMARKS
MEMPHIS INTL   CLOUDY    64  61  88 NW6       29.94R
NWS MEMPHIS      N/A     62 N/A N/A MISG        N/A
JACKSON        CLOUDY    63  61  94 W7        29.92R FOG
DYERSBURG      CLOUDY    63  54  72 N6        29.94R
UNION CITY     CLOUDY    61  61 100 NW9       29.91R
LEXINGTON      CLOUDY    61  61 100 SW3       29.91R
SAVANNAH       CLOUDY    62  62 100 CALM      29.93R
$$

TNZ008-025-027-028-033-062-065-066-221400-
NORTH MIDDLE TENNESSEE

CITY           SKY/WX    TMP DP  RH WIND       PRES   REMARKS
NASHVILLE      CLOUDY    65  59  81 W6        29.89S
DICKSON        CLOUDY    61  59  94 W5        29.90R
PORTLAND         N/A     61  57  88 W6        29.88R
CLARKSVILLE    CLOUDY    64  60  87 W7        29.88S
SMYRNA         CLOUDY    64  61  90 W5        29.90S
MURFREESBORO   CLOUDY    62  61  97 SW7       29.90R
COOKEVILLE       N/A     61  59  94 CALM      29.90S
LIVINGSTON     CLOUDY    59  58  96 SW6       29.90S
GALLATIN       CLOUDY    64  60  87 W3        29.89S
CROSSVILLE     LGT RAIN  58  56  93 W5        29.92S FOG
$$

TNZ061-075-076-078-094-096-097-221400-
SOUTH MIDDLE TENNESSEE

CITY           SKY/WX    TMP DP  RH WIND       PRES   REMARKS
LEWISBURG      CLOUDY    62  61  97 W3        29.91S
FAYETTEVILLE   CLOUDY    60  59  97 CALM      29.92S
TULLAHOMA      PTSUNNY   61  59  94 SW3       29.93S
WINCHESTER     CLOUDY    61  59  94 CALM      29.92S
MCMINNVILLE    CLOUDY    61  61 100 SW3       29.91S
COLUMBIA       PTSUNNY   63  63 100 SW6       29.90S
SHELBYVILLE    CLOUDY    63  63 100 CALM      29.93R
$$

TNZ017-018-042-046-047-221400-
NORTHEAST TENNESSEE

CITY           SKY/WX    TMP DP  RH WIND       PRES   REMARKS
TRI CITIES     CLOUDY    58  47  66 CALM      29.87F
ELIZABETHTON   PTSUNNY   57  48  72 CALM      29.88S
$$

TNZ012-013-036-069-073-074-221400-
CENTRAL EAST TENNESSEE

CITY           SKY/WX    TMP DP  RH WIND       PRES   REMARKS
KNOXVILLE      LGT RAIN  60  55  83 S9        29.89S
OAK RIDGE      CLOUDY    64  55  72 SW6       29.89F
$$

TNZ083-085-099-221400-
SOUTHEAST TENNESSEE

CITY           SKY/WX    TMP DP  RH WIND       PRES   REMARKS
CHATTANOOGA    CLOUDY    63  59  87 CALM      29.91S
$$

SKY/WX REPORTED AS FAIR MEANS FEW OR NO CLOUDS BELOW
12 THOUSAND FEET.




USA.gov is the U.S. government's official web portal to all federal, state and local government web resources and services.